TimePST,TemperatureF,Dew PointF,Humidity,Sea Level PressureIn,VisibilityMPH,Wind Direction,Wind SpeedMPH,Gust SpeedMPH,PrecipitationIn,Events,Conditions,WindDirDegrees,DateUTC
12:53 AM,35.1,30.0,82,30.47,10.0,North,-9999.0,-,N/A,,Overcast,0,2013-01-14 08:53:00
1:53 AM,34.0,28.9,82,30.46,10.0,North,-9999.0,-,N/A,,Overcast,0,2013-01-14 09:53:00
2:53 AM,34.0,30.9,89,30.47,10.0,North,-9999.0,-,N/A,,Overcast,0,2013-01-14 10:53:00
3:12 AM,34.0,30.9,89,30.45,10.0,North,-9999.0,-,N/A,,Overcast,0,2013-01-14 11:12:00
3:53 AM,35.1,30.0,82,30.47,10.0,North,-9999.0,-,N/A,,Overcast,0,2013-01-14 11:53:00
4:53 AM,35.1,30.0,82,30.46,10.0,North,-9999.0,-,N/A,,Overcast,0,2013-01-14 12:53:00
5:44 AM,36.0,30.0,79,30.44,10.0,North,-9999.0,-,N/A,,Overcast,0,2013-01-14 13:44:00
5:53 AM,35.1,30.9,85,30.46,10.0,North,-9999.0,-,N/A,,Overcast,0,2013-01-14 13:53:00
6:53 AM,36.0,30.0,79,30.45,10.0,WSW,3.5,-,N/A,,Overcast,250,2013-01-14 14:53:00
7:53 AM,36.0,30.9,82,30.47,10.0,WSW,3.5,-,N/A,,Overcast,240,2013-01-14 15:53:00
8:53 AM,36.0,30.9,82,30.48,10.0,WSW,4.6,-,N/A,,Overcast,240,2013-01-14 16:53:00
9:12 AM,37.0,30.9,79,30.46,10.0,WSW,3.5,-,N/A,,Overcast,250,2013-01-14 17:12:00
9:53 AM,37.9,32.0,79,30.48,10.0,Calm,Calm,-,N/A,,Overcast,0,2013-01-14 17:53:00
10:53 AM,39.9,33.1,77,30.47,10.0,Calm,Calm,-,N/A,,Overcast,0,2013-01-14 18:53:00
11:28 AM,41.0,33.1,73,30.47,10.0,Calm,Calm,-,N/A,,Overcast,0,2013-01-14 19:28:00
11:53 AM,41.0,34.0,76,30.48,10.0,Calm,Calm,-,N/A,,Overcast,0,2013-01-14 19:53:00
12:53 PM,42.1,35.1,76,30.48,10.0,NE,3.5,-,0.00,,Overcast,40,2013-01-14 20:53:00
1:53 PM,41.0,35.6,81,30.46,10.0,Calm,Calm,-,N/A,,Overcast,0,2013-01-14 21:53:00
2:13 PM,41.0,35.1,79,30.47,10.0,East,3.5,-,0.00,Rain,Light Rain,80,2013-01-14 22:13:00
2:53 PM,41.0,36.0,82,30.49,10.0,ESE,3.5,-,0.00,,Overcast,110,2013-01-14 22:53:00
3:00 PM,41.0,36.0,82,30.48,10.0,East,4.6,-,N/A,,Overcast,100,2013-01-14 23:00:00
3:53 PM,41.0,36.0,82,30.51,10.0,East,3.5,-,N/A,,Overcast,80,2013-01-14 23:53:00
4:53 PM,39.9,36.0,86,30.51,10.0,Calm,Calm,-,N/A,,Overcast,0,2013-01-15 00:53:00
5:38 PM,39.0,36.0,89,30.49,10.0,Calm,Calm,-,N/A,,Overcast,0,2013-01-15 01:38:00
5:53 PM,37.0,35.1,93,30.51,10.0,West,3.5,-,N/A,,Mostly Cloudy,260,2013-01-15 01:53:00
6:27 PM,37.9,36.0,93,30.51,10.0,WNW,3.5,-,N/A,,Mostly Cloudy,290,2013-01-15 02:27:00
6:36 PM,36.0,34.0,93,30.51,10.0,WSW,3.5,-,N/A,,Overcast,250,2013-01-15 02:36:00
6:53 PM,36.0,34.0,93,30.53,10.0,Calm,Calm,-,N/A,,Overcast,0,2013-01-15 02:53:00
7:27 PM,35.1,33.1,92,30.52,10.0,Calm,Calm,-,N/A,,Overcast,0,2013-01-15 03:27:00
7:53 PM,36.0,34.0,93,30.54,10.0,Calm,Calm,-,N/A,,Overcast,0,2013-01-15 03:53:00
8:53 PM,37.0,34.0,89,30.54,10.0,Calm,Calm,-,N/A,,Overcast,0,2013-01-15 04:53:00
9:53 PM,37.0,34.0,89,30.56,10.0,SW,5.8,-,N/A,,Overcast,230,2013-01-15 05:53:00
10:53 PM,37.0,34.0,89,30.56,10.0,Calm,Calm,-,N/A,,Overcast,0,2013-01-15 06:53:00
11:53 PM,36.0,33.1,89,30.56,10.0,Calm,Calm,-,N/A,,Mostly Cloudy,0,2013-01-15 07:53:00